ZIYUAN 1-02C (ZY 1-02C)

Last updated on Tue Jul 01 2025 00:02:29 GMT+0000 (Coordinated Universal Time)

1 38038U 11079A 25181.56738549 .00000295 00000+0 11243-3 0 9993 2 38038 98.4527 250.4531 0005203 280.7027 210.5394 14.37787366708679
UTC large
Height (km)
Speed (km/s)
/
Latitude / Longitude
Inclination (degrees)
Orbital Period (minutes)
Azimuth
Elevation
Range (km)
Doppler Factor

Next 0 passes for location: London (51.5072 / 0.1276)

Sorry there are no passes over London.